Location: *
(38.9800°N, 16.0500°E)
Time: 21:49:57
(UTC+00:00)

Meteor 2-4 Rocket - Pass Details

Date: 07 April 2020
Orbit: 798 x 909 km, 81.2° (Epoch: 25 May)

Event Time Altitude Azimuth Distance (km) Brightness Sun altitude
Exits shadow 02:35:59 27° 189° (S) 1,664 4.9 -21.8°
Maximum altitude 02:39:23 87° 277° (W) 914 3.8 -21.2°
Drops below altitude 10° 02:45:19 10° 9° (N) 2,583 6.7 -20.2°
Sets 02:47:46 0° 9° (N) 3,516 7.4 -19.8°
